Regional Weather Roundup
Issued by NWS

Home | Current Version | Previous Version | Graphics & Text | Print | Product List | Glossary On
Versions: 1 2 3 4 5 6 7 8 9 10 11 12 13 14 15 16 17 18 19 20 21 22 23 24 25 26 27 28 29 30 31 32 33 34 35 36 37 38 39 40 41 42 43 44 45 46 47 48 49 50
000
ASUS43 KLSX 200059
RWRMO

WEATHER SUMMARY FOR MISSOURI
NATIONAL WEATHER SERVICE SPRINGFIELD MO
800 PM CDT FRI SEP 19 2014

NOTE: "FAIR" INDICATES FEW OR NO CLOUDS BELOW 12,000 FEET WITH NO
       SIGNIFICANT WEATHER AND/OR OBSTRUCTIONS TO VISIBILITY.
       CURRENT SKY AND/OR WEATHER CONDITIONS ARE NOT AVAILABLE FOR
       CHILLICOTHE AND FARMINGTON.

MOZ001>031-035>038-043-044-053-054-200200-
...NORTHERN AND WESTERN MISSOURI...

CITY           SKY/WX    TMP DP  RH WIND       PRES   REMARKS
KANSAS CTY INT PTCLDY    72  68  87 S9        29.92F
KANSAS C DTWN  CLEAR     76  67  73 S7        29.92S
LEE`S SUMMIT   CLEAR     73  67  81 S6        29.95S
ST JOSEPH      CLEAR     73  68  84 S8        29.89F
KIRKSVILLE     CLEAR     67  61  81 S8        29.96F

$$
MOZ066>068-077>081-088>096-101>105-200200-
...SOUTHWEST MISSOURI...

CITY           SKY/WX    TMP DP  RH WIND       PRES   REMARKS
SPRINGFIELD    CLEAR     70  63  78 SE5       30.00S
JOPLIN         CLEAR     73  68  84 CALM      29.98S

$$
MOZ032>034-039>042-045>050-055>058-069>072-200200-
...CENTRAL MISSOURI...

CITY           SKY/WX    TMP DP  RH WIND       PRES   REMARKS
COLUMBIA       CLEAR     70  62  76 S3        29.99S
JEFFERSON CITY CLEAR     69  62  78 E3        29.98S
ROLLA          HAZE      66  59  78 S3        30.00S VSB 3/4
SEDALIA        CLEAR     69  64  84 SE5       29.98S
OSAGE BEACH    CLEAR     72  63  73 CALM      29.99S

$$
MOZ051-052-059>065-200200-
...EAST CENTRAL MISSOURI...

CITY           SKY/WX    TMP DP  RH WIND       PRES   REMARKS
ST LOUIS INTL  PTCLDY    75  57  53 S6        30.01S
SPIRIT OF STL  CLEAR     66  61  84 S5        29.99S
ST CHARLES     CLEAR     63  60  90 NE3       29.99S

$$
MOZ072>076-082>087-097>100-106>115-200200-
...SOUTH CENTRAL AND SOUTHEAST MISSOURI...

CITY           SKY/WX    TMP DP  RH WIND       PRES   REMARKS
CAPE GIRARDEAU CLEAR     65  61  87 CALM      30.01S
FARMINGTON     CLEAR     66  59  77 CALM      30.04S
POPLAR BLUFF   CLEAR     68  62  81 CALM      30.00R
WEST PLAINS    CLEAR     68  63  84 CALM      30.03S

$$


USA.gov is the U.S. government's official web portal to all federal, state and local government web resources and services.